Location: Bakhuizen
(52.8696°N, 5.4575°E)
Time: 16:22:07
(UTC+00:00)

Cosmos 773 Rocket - Pass Details

Date: 29 September 2021
Orbit: 745 x 777 km, 74.1° (Epoch: 19 October)

Event Time Altitude Azimuth Distance (km) Brightness Sun altitude
Rises 17:45:54 0° 332° (NNW) 3,249 7.7 -4.8°
Reaches altitude 10° 17:48:17 10° 331° (NNW) 2,323 7.0 -5.2°
Maximum altitude 17:53:32 70° 249° (WSW) 823 4.4 -6.0°
Drops below altitude 10° 17:58:47 10° 166° (SSE) 2,321 6.3 -6.7°
Sets 18:01:10 0° 164° (SSE) 3,246 7.0 -7.1°
